Weather History for Mammoth, CA

Change the Weather History Date:

Sunday, June 23, 2013

  Actual Average Record
Temperature  
Mean Temperature 54 °F -  
Max Temperature 71 °F 73 °F 84 °F (2006)
Min Temperature 37 °F 61 °F 35 °F (2010)
Degree Days  
Heating Degree Days 11    
Growing Degree Days 4 (Base 50)    
Moisture  
Dew Point 31 °F    
Average Humidity 39    
Maximum Humidity 70    
Minimum Humidity 16    
Precipitation  
Precipitation 0.00 in - - ()
Sea Level Pressure  
Sea Level Pressure 30.02 in    
Wind  
Wind Speed 10 mph (West)    
Max Wind Speed 29 mph    
Max Gust Speed 39 mph    
Visibility 10 miles    
Events      
Averages and records for this station are not official NWS values.
T = Trace of Precipitation, MM = Missing Value Source: NWS Daily Summary

Daily Weather History Graph

Daily Weather History Graph

Search for Another Location

Airport:

Trip Planner

Search our weather history database for the weather conditions in past years. The results will help you decide how hot, cold, wet, or windy it might be!

Date:

Astronomy

Jun. 23, 2013 Rise Set
Actual Time 5:34 AM PDT 8:20 PM PDT
Civil Twilight 5:03 AM PDT 8:51 PM PDT
Nautical Twilight 4:24 AM PDT 9:30 PM PDT
Astronomical Twilight 3:40 AM PDT 10:15 PM PDT
Moon 8:39 PM PDT (6/23) 5:56 AM PDT (6/23)
Length of Visible Light 15h 48m
Length of Day
14h 45m
Full, 100% of the Moon is Illuminated
Jun 23
Full
Jun 29
Last Quarter
Jul 8
New
Jul 15
First Quarter
Jul 22
Full

Hourly Weather History & Observations

Time (PDT) Temp. Windchill Dew Point Humidity Pressure Visibility Wind Dir Wind Speed Gust Speed Precip Events Conditions
12:15 AM 53.6 °F - 32.0 °F 44% 30.11 in 10.0 mi NW 4.6 mph - N/A   Clear
12:35 AM 53.6 °F - 32.0 °F 44% 30.11 in 10.0 mi West 8.1 mph - N/A   Clear
12:55 AM 53.6 °F - 32.0 °F 44% 30.10 in 10.0 mi West 10.4 mph - N/A   Clear
1:15 AM 53.6 °F - 32.0 °F 44% 30.10 in 10.0 mi West 10.4 mph - N/A   Clear
1:35 AM 51.8 °F - 32.0 °F 47% 30.09 in 10.0 mi WNW 6.9 mph 16.1 mph N/A   Clear
1:55 AM 51.8 °F - 32.0 °F 47% 30.09 in 10.0 mi WNW 6.9 mph - N/A   Clear
2:15 AM 51.8 °F - 32.0 °F 47% 30.09 in 10.0 mi West 6.9 mph - N/A   Clear
2:35 AM 50.0 °F - 32.0 °F 50% 30.08 in 10.0 mi West 8.1 mph - N/A   Clear
2:55 AM 50.0 °F - 32.0 °F 50% 30.08 in 10.0 mi Calm Calm - N/A   Clear
3:15 AM 48.2 °F - 30.2 °F 50% 30.07 in 10.0 mi SSE 3.5 mph - N/A   Clear
3:35 AM 46.4 °F 44.3 °F 32.0 °F 57% 30.07 in 10.0 mi South 4.6 mph - N/A   Clear
3:55 AM 46.4 °F 43.5 °F 32.0 °F 57% 30.07 in 10.0 mi South 5.8 mph - N/A   Clear
4:15 AM 46.4 °F - 32.0 °F 57% 30.06 in 10.0 mi Calm Calm - N/A   Clear
4:35 AM 46.4 °F 44.3 °F 32.0 °F 57% 30.06 in 10.0 mi South 4.6 mph - N/A   Clear
4:55 AM 44.6 °F 42.2 °F 32.0 °F 61% 30.06 in 10.0 mi South 4.6 mph - N/A   Clear
5:15 AM 46.4 °F 45.2 °F 32.0 °F 57% 30.05 in 10.0 mi SSE 3.5 mph - N/A   Clear
5:35 AM 42.8 °F - 30.2 °F 61% 30.05 in 10.0 mi Calm Calm - N/A   Clear
5:55 AM 42.8 °F - 32.0 °F 66% 30.05 in 10.0 mi Calm Calm - N/A   Clear
6:15 AM 37.4 °F 32.1 °F 28.4 °F 70% 30.05 in 10.0 mi North 6.9 mph - N/A   Clear
6:35 AM 42.8 °F - 32.0 °F 66% 30.05 in 10.0 mi Calm Calm - N/A   Clear
6:55 AM 50.0 °F - 33.8 °F 54% 30.05 in 10.0 mi Calm Calm - N/A   Clear
7:15 AM 53.6 °F - 33.8 °F 47% 30.05 in 10.0 mi SSE 4.6 mph - N/A   Clear
7:35 AM 55.4 °F - 33.8 °F 44% 30.05 in 10.0 mi SE 6.9 mph - N/A   Clear
7:55 AM 59.0 °F - 33.8 °F 39% 30.04 in 10.0 mi ESE 3.5 mph - N/A   Clear
8:15 AM 60.8 °F - 33.8 °F 36% 30.04 in 10.0 mi Calm Calm - N/A   Clear
8:35 AM 62.6 °F - 33.8 °F 34% 30.04 in 10.0 mi Calm Calm - N/A   Clear
8:55 AM 64.4 °F - 33.8 °F 32% 30.03 in 10.0 mi SSE 4.6 mph - N/A   Clear
9:15 AM 66.2 °F - 33.8 °F 30% 30.02 in 10.0 mi ESE 5.8 mph - N/A   Clear
9:35 AM 68.0 °F - 33.8 °F 28% 30.02 in 10.0 mi ENE 4.6 mph - N/A   Clear
9:55 AM 71.6 °F - 30.2 °F 22% 30.01 in 10.0 mi NW 13.8 mph 20.7 mph N/A   Clear
10:15 AM 71.6 °F - 24.8 °F 17% 30.00 in 10.0 mi SSW 8.1 mph 19.6 mph N/A   Clear
10:35 AM 71.6 °F - 23.0 °F 16% 30.00 in 10.0 mi West 16.1 mph - N/A   Clear
10:55 AM 69.8 °F - 24.8 °F 18% 30.00 in 10.0 mi WSW 9.2 mph 19.6 mph N/A   Scattered Clouds
11:15 AM 69.8 °F - 24.8 °F 18% 30.00 in 10.0 mi WSW 12.7 mph 23.0 mph N/A   Clear
11:35 AM 69.8 °F - 26.6 °F 20% 30.01 in 10.0 mi WSW 13.8 mph 25.3 mph N/A   Clear
11:55 AM 68.0 °F - 30.2 °F 24% 30.01 in 10.0 mi West 17.3 mph 24.2 mph N/A   Clear
12:15 PM 66.2 °F - 32.0 °F 28% 30.00 in 10.0 mi WNW 21.9 mph 27.6 mph N/A   Clear
12:35 PM 68.0 °F - 30.2 °F 24% 29.99 in 10.0 mi West 13.8 mph 29.9 mph N/A   Clear
12:55 PM 68.0 °F - 32.0 °F 26% 29.99 in 10.0 mi WNW 28.8 mph 39.1 mph N/A   Clear
1:15 PM 68.0 °F - 32.0 °F 26% 29.99 in 10.0 mi WNW 25.3 mph 35.7 mph N/A   Clear
1:35 PM 68.0 °F - 32.0 °F 26% 29.98 in 10.0 mi West 18.4 mph 35.7 mph N/A   Clear
1:55 PM 68.0 °F - 32.0 °F 26% 29.98 in 10.0 mi WSW 23.0 mph 31.1 mph N/A   Clear
2:15 PM 68.0 °F - 32.0 °F 26% 29.98 in 10.0 mi West 24.2 mph 35.7 mph N/A   Clear
2:35 PM 66.2 °F - 32.0 °F 28% 29.98 in 10.0 mi West 23.0 mph 34.5 mph N/A   Clear
2:55 PM 66.2 °F - 32.0 °F 28% 29.98 in 10.0 mi WSW 19.6 mph 32.2 mph N/A   Clear
3:15 PM 66.2 °F - 32.0 °F 28% 29.98 in 10.0 mi WSW 23.0 mph 33.4 mph N/A   Clear
3:35 PM 66.2 °F - 30.2 °F 26% 29.97 in 10.0 mi WSW 16.1 mph 31.1 mph N/A   Clear
3:55 PM 66.2 °F - 28.4 °F 24% 29.96 in 10.0 mi WSW 11.5 mph 17.3 mph N/A   Scattered Clouds
4:15 PM 66.2 °F - 28.4 °F 24% 29.96 in 10.0 mi WNW 13.8 mph 26.5 mph N/A   Scattered Clouds
4:35 PM 64.4 °F - 30.2 °F 28% 29.96 in 10.0 mi WNW 25.3 mph 35.7 mph N/A   Clear
4:55 PM 62.6 °F - 32.0 °F 32% 29.96 in 10.0 mi WNW 24.2 mph 36.8 mph N/A   Scattered Clouds
5:15 PM 62.6 °F - 32.0 °F 32% 29.95 in 10.0 mi WNW 21.9 mph 32.2 mph N/A   Clear
5:35 PM 62.6 °F - 32.0 °F 32% 29.96 in 10.0 mi West 19.6 mph 28.8 mph N/A   Clear
5:55 PM 62.6 °F - 32.0 °F 32% 29.96 in 10.0 mi WNW 19.6 mph 26.5 mph N/A   Scattered Clouds
6:15 PM 62.6 °F - 30.2 °F 30% 29.97 in 10.0 mi WNW 21.9 mph 28.8 mph N/A   Scattered Clouds
6:35 PM 60.8 °F - 28.4 °F 29% 29.96 in 10.0 mi NW 5.8 mph 24.2 mph N/A   Scattered Clouds
6:55 PM 60.8 °F - 28.4 °F 29% 29.97 in 10.0 mi WNW 16.1 mph 23.0 mph N/A   Clear
7:15 PM 60.8 °F - 28.4 °F 29% 29.98 in 10.0 mi WNW 11.5 mph 23.0 mph N/A   Clear
7:35 PM 59.0 °F - 30.2 °F 34% 29.99 in 10.0 mi WNW 21.9 mph 28.8 mph N/A   Clear
7:55 PM 57.2 °F - 30.2 °F 36% 29.99 in 10.0 mi WNW 17.3 mph 28.8 mph N/A   Clear
8:15 PM 55.4 °F - 32.0 °F 41% 29.99 in 10.0 mi West 18.4 mph 25.3 mph N/A   Clear
8:35 PM 55.4 °F - 32.0 °F 41% 29.99 in 10.0 mi West 16.1 mph - N/A   Mostly Cloudy
8:55 PM 53.6 °F - 32.0 °F 44% 29.99 in 10.0 mi West 16.1 mph 20.7 mph N/A   Scattered Clouds
9:15 PM 51.8 °F - 32.0 °F 47% 29.99 in 10.0 mi West 17.3 mph 21.9 mph N/A   Clear
9:35 PM 51.8 °F - 30.2 °F 44% 29.99 in 10.0 mi West 12.7 mph - N/A   Clear
9:55 PM 51.8 °F - 30.2 °F 44% 30.00 in 10.0 mi West 19.6 mph 24.2 mph N/A   Clear
10:15 PM 51.8 °F - 30.2 °F 44% 29.99 in 10.0 mi WNW 16.1 mph - N/A   Clear
10:35 PM 51.8 °F - 30.2 °F 44% 29.99 in 10.0 mi West 9.2 mph - N/A   Clear
10:55 PM 51.8 °F - 30.2 °F 44% 29.99 in 10.0 mi West 13.8 mph 18.4 mph N/A   Clear
11:15 PM 50.0 °F - 32.0 °F 50% 29.99 in 10.0 mi West 11.5 mph 21.9 mph N/A   Clear
11:35 PM 50.0 °F - 32.0 °F 50% 29.98 in 10.0 mi WNW 15.0 mph 20.7 mph N/A   Clear
11:55 PM 50.0 °F - 32.0 °F 50% 29.98 in 10.0 mi West 9.2 mph 16.1 mph N/A   Clear